Voltar ao catálogo

STARLINK-34747

AtivoComunicaçõesSSO
NORAD 64947·PAYLOAD·🇺🇸 United States

Lançado Jul 26, 2025 de Vandenberg Space Force Base

Loading…

Próximas Passagens (próximas 24 horas)

TLE

AtualizadoSource: CelesTrak SupGP

Época: Sep 15, 2026, 02:35 UTC

1 64947C 25158R   26258.10812500  .00012733  00000+0  39511-3 0  2586
2 64947  97.2849 116.4002 0002137  92.0967 273.3135 15.33443045    18

Acompanhe STARLINK-34747 em tempo real com AllMySat

Download on the App Store